K7DTF Weather Reports


time (UTC)temp
C
wind
direction
speed
KPH
gust
KPH
rain 1hr
cm
rain 24hr
cm
rain mn
cm
humidity
%
barometer
mb
20260507221416 26 239 6.4 11.3 0.00 0.00 0.00 26 1013.2
20260507220910 25 217 8.0 16.1 0.00 0.00 0.00 27 1013.3
20260507220404 25 225 8.0 16.1 0.00 0.00 0.00 28 1013.4
20260507215858 25 235 4.8 14.5 0.00 0.00 0.00 27 1013.5
20260507215352 25 291 4.8 11.3 0.00 0.00 0.00 32 1013.4
20260507215332 24 280 6.4 17.7 0.00 0.00 0.00 29 1013.6
20260507214344 24 277 8.0 17.7 0.00 0.00 0.00 30 1013.7
20260507213844 24 252 8.0 16.1 0.00 0.00 0.00 30 1013.7
20260507213344 25 280 8.0 16.1 0.00 0.00 0.00 31 1013.9
20260507212844 25 207 6.4 16.1 0.00 0.00 0.00 32 1013.9
20260507212344 24 207 8.0 14.5 0.00 0.00 0.00 33 1014.0
20260507211844 24 184 8.0 16.1 0.00 0.00 0.00 37 1014.1
20260507211344 24 235 9.7 22.5 0.00 0.00 0.00 33 1014.1
20260507210844 25 222 8.0 22.5 0.00 0.00 0.00 31 1014.1
20260507210343 24 189 8.0 19.3 0.00 0.00 0.00 39 1014.2
20260507205845 25 197 8.0 19.3 0.00 0.00 0.00 33 1014.2
20260507205344 25 225 9.7 22.5 0.00 0.00 0.00 36 1014.4
20260507204844 25 159 8.0 22.5 0.00 0.00 0.00 34 1014.3
20260507204343 25 239 6.4 19.3 0.00 0.00 0.00 34 1014.3
20260507203841 24 270 8.0 20.9 0.00 0.00 0.00 38 1014.4
20260507203342 23 235 9.7 20.9 0.00 0.00 0.00 36 1014.5
20260507203104 24 222 9.7 20.9 0.00 0.00 0.00 36 1014.5
20260507202336 25 205 8.0 19.3 0.00 0.00 0.00 38 1014.5
20260507202049 24 199 8.0 25.7 0.00 0.00 0.00 38 1014.6
20260507201324 23 182 9.7 24.1 0.00 0.00 0.00 38 1014.7
20260507200818 23 169 9.7 22.5 0.00 0.00 0.00 38 1014.7
20260507200312 23 287 8.0 17.7 0.00 0.00 0.00 39 1014.6
20260507195806 23 225 9.7 20.9 0.00 0.00 0.00 37 1014.8
20260507195300 23 262 9.7 20.9 0.00 0.00 0.00 43 1014.8
20260507194754 23 194 8.0 20.9 0.00 0.00 0.00 39 1014.8
20260507194247 23 234 6.4 16.1 0.00 0.00 0.00 41 1014.8
20260507193741 22 179 8.0 20.9 0.00 0.00 0.00 39 1014.8
20260507193236 23 229 9.7 24.1 0.00 0.00 0.00 39 1014.9
20260507192952 23 193 8.0 24.1 0.00 0.00 0.00 44 1014.8
20260507192224 22 197 8.0 19.3 0.00 0.00 0.00 42 1014.8
20260507191718 23 266 9.7 16.1 0.00 0.00 0.00 40 1014.9
20260507191212 23 188 9.7 19.3 0.00 0.00 0.00 40 1015.0
20260507190705 23 227 8.0 19.3 0.00 0.00 0.00 40 1015.0
20260507190200 22 214 6.4 16.1 0.00 0.00 0.00 43 1015.2
20260507185653 22 239 8.0 19.3 0.00 0.00 0.00 42 1015.2
20260507185148 22 181 9.7 19.3 0.00 0.00 0.00 39 1015.2
20260507184642 22 189 8.0 20.9 0.00 0.00 0.00 45 1015.2
20260507184136 22 245 9.7 22.5 0.00 0.00 0.00 41 1015.2
20260507183630 22 197 11.3 22.5 0.00 0.00 0.00 42 1015.1
20260507183123 22 118 12.9 25.7 0.00 0.00 0.00 44 1015.3
20260507182618 22 184 12.9 25.7 0.00 0.00 0.00 43 1015.4
20260507182113 22 139 11.3 24.1 0.00 0.00 0.00 42 1015.3
20260507181605 22 184 11.3 24.1 0.00 0.00 0.00 42 1015.3
20260507181059 22 186 11.3 24.1 0.00 0.00 0.00 44 1015.4
20260507180554 22 146 12.9 24.1 0.00 0.00 0.00 45 1015.5
20260507180047 21 186 14.5 27.4 0.00 0.00 0.00 45 1015.5
20260507175542 21 191 12.9 27.4 0.00 0.00 0.00 46 1015.5
20260507175036 20 191 11.3 24.1 0.00 0.00 0.00 46 1015.5
20260507174529 20 179 11.3 24.1 0.00 0.00 0.00 49 1015.5
20260507174246 20 177 9.7 20.9 0.00 0.00 0.00 46 1015.7
20260507173023 20 227 9.7 20.9 0.00 0.00 0.00 47 1015.7
20260507172524 20 234 9.7 19.3 0.00 0.00 0.00 46 1015.8
20260507172024 20 191 9.7 25.7 0.00 0.00 0.00 49 1015.8
20260507171744 20 199 11.3 25.7 0.00 0.00 0.00 50 1015.8
20260507171245 20 297 9.7 20.9 0.00 0.00 0.00 50 1015.8
20260507170523 20 171 6.4 17.7 0.00 0.00 0.00 52 1015.8
20260507170022 20 303 4.8 11.3 0.00 0.00 0.00 55 1015.8
20260507165521 19 182 6.4 16.1 0.00 0.00 0.00 53 1015.9
20260507165021 19 257 8.0 17.7 0.00 0.00 0.00 54 1016.0
20260507164522 20 297 8.0 17.7 0.00 0.00 0.00 54 1015.9
20260507164022 19 242 4.8 12.9 0.00 0.00 0.00 54 1015.9
20260507163522 19 174 8.0 20.9 0.00 0.00 0.00 55 1015.8
20260507163023 19 193 9.7 20.9 0.00 0.00 0.00 55 1015.9
20260507162519 19 192 8.0 16.1 0.00 0.00 0.00 57 1015.7
20260507162017 18 207 8.0 17.7 0.00 0.00 0.00 57 1015.8
20260507161517 18 168 6.4 17.7 0.00 0.00 0.00 56 1015.8
20260507161018 18 200 8.0 22.5 0.00 0.00 0.00 58 1015.9
20260507160517 18 282 9.7 22.5 0.00 0.00 0.00 57 1015.8
20260507160242 18 172 8.0 19.3 0.00 0.00 0.00 58 1015.8
20260507155518 18 200 8.0 19.3 0.00 0.00 0.00 58 1015.9
20260507155019 18 200 9.7 19.3 0.00 0.00 0.00 59 1015.9
20260507154744 17 173 8.0 19.3 0.00 0.00 0.00 58 1015.9
20260507154015 17 163 8.0 16.1 0.00 0.00 0.00 59 1016.1
20260507153514 17 176 9.7 20.9 0.00 0.00 0.00 60 1016.1
20260507153014 17 155 8.0 20.9 0.00 0.00 0.00 61 1016.1
20260507152514 16 201 9.7 20.9 0.00 0.00 0.00 63 1016.0
20260507152014 16 249 9.7 22.5 0.00 0.00 0.00 62 1016.1
20260507151514 16 180 8.0 22.5 0.00 0.00 0.00 63 1015.9
20260507151239 16 220 6.4 14.5 0.00 0.00 0.00 65 1016.0
20260507150513 15 237 6.4 16.1 0.00 0.00 0.00 65 1015.9
20260507150014 15 266 6.4 16.1 0.00 0.00 0.00 65 1015.9
20260507145509 15 180 6.4 19.3 0.00 0.00 0.00 66 1016.0
20260507145009 15 209 8.0 19.3 0.00 0.00 0.00 66 1015.9
20260507144509 15 178 8.0 17.7 0.00 0.00 0.00 67 1015.8
20260507144011 15 214 6.4 16.1 0.00 0.00 0.00 70 1015.6
20260507143511 14 176 6.4 16.1 0.00 0.00 0.00 70 1015.7
20260507143009 14 176 6.4 16.1 0.00 0.00 0.00 70 1015.9
20260507142733 13 213 6.4 16.1 0.00 0.00 0.00 72 1015.7
20260507142010 13 213 8.0 16.1 0.00 0.00 0.00 72 1015.6
20260507141952 13 177 6.4 16.1 0.00 0.00 0.00 72 1015.5
20260507141011 13 183 6.4 14.5 0.00 0.00 0.00 73 1015.4
20260507140509 13 249 8.0 16.1 0.00 0.00 0.00 73 1015.4
20260507140011 13 207 6.4 16.1 0.00 0.00 0.00 74 1015.2
20260507135735 12 162 6.4 12.9 0.00 0.00 0.00 74 1015.1
20260507135011 12 177 4.8 12.9 0.00 0.00 0.00 74 1015.0
20260507134510 12 162 4.8 9.7 0.00 0.00 0.00 74 1015.0
20260507134225 12 176 4.8 9.7 0.00 0.00 0.00 74 1015.0
20260507133510 12 196 4.8 9.7 0.00 0.00 0.00 74 1015.1
20260507133010 12 170 6.4 9.7 0.00 0.00 0.00 74 1015.1
20260507132510 12 164 4.8 11.3 0.00 0.00 0.00 74 1014.9
20260507132227 12 166 3.2 11.3 0.00 0.00 0.00 74 1015.2
20260507131458 12 187 3.2 8.0 0.00 0.00 0.00 74 1015.1
20260507130951 12 162 1.6 8.0 0.00 0.00 0.00 74 1015.0
20260507130446 12 226 1.6 8.0 0.00 0.00 0.00 73 1014.9
20260507130204 12 204 1.6 8.0 0.00 0.00 0.00 73 1014.9
20260507125659 12 174 3.2 8.0 0.00 0.00 0.00 73 1014.9
20260507124927 12 161 4.8 11.3 0.00 0.00 0.00 73 1014.8
20260507124649 12 173 4.8 11.3 0.00 0.00 0.00 73 1014.7
20260507123916 12 183 6.4 11.3 0.00 0.00 0.00 73 1014.7
20260507123409 12 203 8.0 16.1 0.00 0.00 0.00 73 1014.7
20260507122903 12 168 6.4 16.1 0.00 0.00 0.00 73 1014.7
20260507122357 12 196 6.4 14.5 0.00 0.00 0.00 73 1014.7
20260507121850 12 181 6.4 17.7 0.00 0.00 0.00 73 1014.7
20260507121345 12 175 8.0 17.7 0.00 0.00 0.00 73 1014.7
20260507120845 12 146 9.7 17.7 0.00 0.00 0.00 73 1014.7
20260507120344 12 180 9.7 17.7 0.00 0.00 0.00 73 1014.6
20260507115845 12 190 8.0 14.5 0.00 0.00 0.00 72 1014.7
20260507115600 12 174 8.0 20.9 0.00 0.00 0.00 72 1014.8
20260507115102 12 168 8.0 20.9 0.00 0.00 0.00 72 1014.8
20260507114341 12 170 8.0 14.5 0.00 0.00 0.00 72 1014.8
20260507114101 12 169 6.4 14.5 0.00 0.00 0.00 71 1014.8
20260507113343 12 147 6.4 14.5 0.00 0.00 0.00 72 1015.0
20260507112843 12 180 6.4 14.5 0.00 0.00 0.00 71 1015.0
20260507112342 12 164 6.4 14.5 0.00 0.00 0.00 71 1014.9
20260507111841 12 187 6.4 14.5 0.00 0.00 0.00 71 1014.9
20260507111340 12 194 6.4 12.9 0.00 0.00 0.00 71 1014.9
20260507110842 12 174 4.8 11.3 0.00 0.00 0.00 71 1014.9
20260507110340 13 209 4.8 11.3 0.00 0.00 0.00 71 1014.9
20260507105844 13 182 6.4 11.3 0.00 0.00 0.00 71 1014.9
20260507105604 13 160 4.8 11.3 0.00 0.00 0.00 71 1014.8
20260507104840 13 171 4.8 11.3 0.00 0.00 0.00 71 1014.9
20260507104830 13 184 4.8 11.3 0.00 0.00 0.00 71 1014.8
20260507103825 13 203 6.4 14.5 0.00 0.00 0.00 70 1014.9
20260507103319 13 180 6.4 14.5 0.00 0.00 0.00 70 1014.9
20260507102813 13 176 6.4 12.9 0.00 0.00 0.00 70 1014.8
20260507102307 13 168 4.8 12.9 0.00 0.00 0.00 69 1014.9
20260507101801 13 170 4.8 9.7 0.00 0.00 0.00 69 1014.9
20260507101255 13 161 6.4 11.3 0.00 0.00 0.00 69 1014.8
20260507100750 13 161 4.8 11.3 0.00 0.00 0.00 68 1014.8
20260507100243 13 170 4.8 11.3 0.00 0.00 0.00 68 1014.8
20260507095737 13 134 6.4 12.9 0.00 0.00 0.00 68 1014.9
20260507095232 13 215 6.4 12.9 0.00 0.00 0.00 68 1014.9
20260507094952 13 162 4.8 11.3 0.00 0.00 0.00 68 1014.8
20260507094444 13 184 4.8 8.0 0.00 0.00 0.00 67 1014.9
20260507093935 13 187 6.4 16.1 0.00 0.00 0.00 67 1014.9
20260507093207 13 203 4.8 16.1 0.00 0.00 0.00 67 1014.9
20260507092701 13 174 4.8 9.7 0.00 0.00 0.00 66 1014.8
20260507092155 13 193 1.6 9.7 0.00 0.00 0.00 65 1014.9
20260507091649 13 178 1.6 4.8 0.00 0.00 0.00 65 1014.8
20260507091408 14 204 3.2 8.0 0.00 0.00 0.00 65 1014.8
20260507090637 14 218 3.2 8.0 0.00 0.00 0.00 65 1014.7
20260507090131 14 194 3.2 8.0 0.00 0.00 0.00 64 1014.7
20260507085625 14 178 3.2 8.0 0.00 0.00 0.00 64 1014.7
20260507085119 14 168 1.6 4.8 0.00 0.00 0.00 63 1014.7
20260507084612 14 150 1.6 4.8 0.00 0.00 0.00 63 1014.8
20260507084106 14 256 1.6 4.8 0.00 0.00 0.00 63 1014.8
20260507083601 14 225 3.2 6.4 0.00 0.00 0.00 63 1014.7
20260507083055 14 264 4.8 14.5 0.00 0.00 0.00 63 1014.7
20260507082549 14 199 6.4 14.5 0.00 0.00 0.00 63 1014.6
20260507082043 14 176 4.8 12.9 0.00 0.00 0.00 64 1014.5
20260507081542 14 185 4.8 6.4 0.00 0.00 0.00 64 1014.4
20260507081042 14 228 3.2 9.7 0.00 0.00 0.00 64 1014.5
20260507080541 14 208 4.8 12.9 0.00 0.00 0.00 63 1014.6
20260507080038 14 192 6.4 12.9 0.00 0.00 0.00 63 1014.5
20260507075537 15 223 4.8 11.3 0.00 0.00 0.00 63 1014.5
20260507075306 15 186 3.2 8.0 0.00 0.00 0.00 62 1014.5
20260507074538 15 191 3.2 6.4 0.00 0.00 0.00 61 1014.5
20260507074035 15 182 3.2 9.7 0.00 0.00 0.00 62 1014.4
20260507073533 15 214 3.2 9.7 0.00 0.00 0.00 62 1014.4
20260507073032 15 162 1.6 9.7 0.00 0.00 0.00 61 1014.2
20260507072532 15 95 3.2 8.0 0.00 0.00 0.00 61 1014.2
20260507072033 15 207 4.8 11.3 0.00 0.00 0.00 60 1014.1
20260507071534 15 177 6.4 11.3 0.00 0.00 0.00 60 1014.1
20260507071027 16 167 6.4 11.3 0.00 0.00 0.00 59 1014.0
20260507071009 16 180 4.8 11.3 0.00 0.00 0.00 60 1014.1
20260507070016 16 171 4.8 9.7 0.00 0.00 0.00 59 1014.1
20260507065954 16 140 3.2 9.7 0.00 0.00 0.00 58 1014.1
20260507065003 16 162 3.2 8.0 0.00 0.00 0.00 57 1014.1
20260507064458 16 175 3.2 11.3 0.00 0.00 0.00 56 1014.1
20260507064213 16 202 6.4 14.5 0.00 0.00 0.00 56 1014.1
20260507063445 16 170 8.0 14.5 0.00 0.00 0.00 56 1014.1
20260507062939 17 142 8.0 14.5 0.00 0.00 0.00 57 1014.0
20260507062434 17 184 8.0 12.9 0.00 0.00 0.00 56 1013.9
20260507061928 17 163 8.0 14.5 0.00 0.00 0.00 55 1013.9
20260507061422 17 171 9.7 16.1 0.00 0.00 0.00 55 1013.8
20260507060922 17 165 8.0 16.1 0.00 0.00 0.00 55 1013.8
20260507060418 17 166 6.4 14.5 0.00 0.00 0.00 54 1013.8
20260507055919 17 166 8.0 19.3 0.00 0.00 0.00 54 1013.7
20260507055419 17 162 9.7 19.3 0.00 0.00 0.00 54 1013.7
20260507054918 17 200 8.0 19.3 0.00 0.00 0.00 54 1013.8
20260507054418 17 167 8.0 12.9 0.00 0.00 0.00 54 1013.9
20260507053918 17 163 6.4 14.5 0.00 0.00 0.00 54 1014.0
20260507053416 18 164 6.4 14.5 0.00 0.00 0.00 54 1013.9
20260507053139 18 164 3.2 11.3 0.00 0.00 0.00 55 1014.0
20260507052416 18 167 3.2 8.0 0.00 0.00 0.00 54 1013.9
20260507051916 18 116 4.8 8.0 0.00 0.00 0.00 54 1013.8
20260507051412 18 128 4.8 14.5 0.00 0.00 0.00 52 1013.6
20260507050913 18 217 4.8 14.5 0.00 0.00 0.00 52 1013.7
20260507050414 19 224 4.8 14.5 0.00 0.00 0.00 52 1013.7
20260507050132 19 51 4.8 14.5 0.00 0.00 0.00 52 1013.6
20260507045411 19 171 6.4 12.9 0.00 0.00 0.00 52 1013.6
20260507044911 19 160 6.4 12.9 0.00 0.00 0.00 51 1013.6
20260507044410 20 178 8.0 14.5 0.00 0.00 0.00 51 1013.5
20260507044135 20 180 8.0 16.1 0.00 0.00 0.00 51 1013.5
20260507043410 20 137 8.0 16.1 0.00 0.00 0.00 51 1013.5
20260507042912 20 170 6.4 12.9 0.00 0.00 0.00 52 1013.5
20260507042634 20 180 6.4 12.9 0.00 0.00 0.00 52 1013.5
20260507041912 20 175 6.4 12.9 0.00 0.00 0.00 51 1013.6
20260507041406 20 168 6.4 11.3 0.00 0.00 0.00 51 1013.4
20260507040907 20 214 4.8 11.3 0.00 0.00 0.00 51 1013.3
20260507040407 20 185 4.8 11.3 0.00 0.00 0.00 51 1013.2
20260507035907 21 187 4.8 14.5 0.00 0.00 0.00 50 1013.0
20260507035407 21 185 8.0 14.5 0.00 0.00 0.00 50 1012.9
20260507034906 21 174 8.0 14.5 0.00 0.00 0.00 50 1012.6
20260507034406 21 187 6.4 16.1 0.00 0.00 0.00 50 1012.4
20260507033906 21 205 6.4 16.1 0.00 0.00 0.00 49 1012.4
20260507033408 21 213 4.8 14.5 0.00 0.00 0.00 49 1012.4
20260507032903 21 230 4.8 9.7 0.00 0.00 0.00 49 1012.3
20260507032403 22 211 6.4 16.1 0.00 0.00 0.00 48 1012.3
20260507031902 22 165 8.0 17.7 0.00 0.00 0.00 48 1012.1
20260507031404 22 237 6.4 17.7 0.00 0.00 0.00 48 1012.2
20260507030902 22 160 8.0 14.5 0.00 0.00 0.00 48 1012.0
20260507030624 22 214 8.0 14.5 0.00 0.00 0.00 47 1012.0
20260507030130 22 171 6.4 12.9 0.00 0.00 0.00 48 1012.0
20260507025402 22 197 4.8 12.9 0.00 0.00 0.00 48 1011.9
20260507024904 22 178 4.8 11.3 0.00 0.00 0.00 48 1011.9
20260507024402 23 178 6.4 14.5 0.00 0.00 0.00 48 1011.9
20260507023902 23 187 4.8 14.5 0.00 0.00 0.00 48 1011.9
20260507023403 23 192 4.8 11.3 0.00 0.00 0.00 48 1011.7
20260507023122 23 149 3.2 9.7 0.00 0.00 0.00 48 1011.7
20260507022621 23 210 3.2 8.0 0.00 0.00 0.00 48 1011.8
20260507022127 23 189 4.8 8.0 0.00 0.00 0.00 48 1011.5
20260507021404 23 162 6.4 11.3 0.00 0.00 0.00 47 1011.4
20260507020903 23 167 6.4 14.5 0.00 0.00 0.00 48 1011.4
20260507020402 24 207 6.4 14.5 0.00 0.00 0.00 48 1011.2
20260507015902 24 175 4.8 11.3 0.00 0.00 0.00 48 1011.1
20260507015403 24 198 4.8 11.3 0.00 0.00 0.00 47 1011.1
20260507015121 24 181 4.8 11.3 0.00 0.00 0.00 47 1011.2
20260507014350 24 207 4.8 11.3 0.00 0.00 0.00 46 1011.1
20260507014110 25 186 4.8 11.3 0.00 0.00 0.00 48 1011.2
20260507013339 25 182 6.4 12.9 0.00 0.00 0.00 48 1011.1
20260507013053 25 188 6.4 12.9 0.00 0.00 0.00 47 1011.1
20260507012326 25 160 6.4 11.3 0.00 0.00 0.00 47 1011.1
20260507011820 25 179 4.8 11.3 0.00 0.00 0.00 47 1011.1
20260507011312 25 178 4.8 9.7 0.00 0.00 0.00 46 1011.2
20260507011033 25 243 4.8 11.3 0.00 0.00 0.00 47 1011.2
20260507010749 25 193 4.8 11.3 0.00 0.00 0.00 46 1011.2
20260507005754 25 187 4.8 14.5 0.00 0.00 0.00 46 1011.2
20260507005249 25 185 4.8 14.5 0.00 0.00 0.00 45 1011.2
20260507005012 25 193 4.8 11.3 0.00 0.00 0.00 46 1011.2
20260507004237 26 207 4.8 12.9 0.00 0.00 0.00 45 1011.1
20260507003731 26 196 4.8 12.9 0.00 0.00 0.00 46 1011.3
20260507003225 26 214 4.8 9.7 0.00 0.00 0.00 45 1011.1
20260507002719 26 240 6.4 14.5 0.00 0.00 0.00 44 1011.2
20260507002213 26 257 8.0 19.3 0.00 0.00 0.00 45 1011.1
20260507001930 26 248 8.0 19.3 0.00 0.00 0.00 44 1011.0
20260507001200 26 220 6.4 14.5 0.00 0.00 0.00 44 1011.1
20260507000655 26 205 6.4 16.1 0.00 0.00 0.00 43 1011.0
20260507000148 27 203 6.4 16.1 0.00 0.00 0.00 41 1011.0
20260507000131 27 209 6.4 16.1 0.00 0.00 0.00 40 1011.2
20260506235137 27 236 6.4 16.1 0.00 0.00 0.00 39 1011.2
20260506234630 27 234 8.0 20.9 0.00 0.00 0.00 41 1011.3
20260506234125 27 205 9.7 20.9 0.00 0.00 0.00 40 1011.2
20260506233618 27 226 9.7 20.9 0.00 0.00 0.00 40 1011.2
20260506233113 27 205 8.0 19.3 0.00 0.00 0.00 41 1011.2
20260506232607 27 235 8.0 19.3 0.00 0.00 0.00 39 1011.2
20260506232101 27 209 8.0 17.7 0.00 0.00 0.00 38 1011.2
20260506231821 27 209 8.0 17.7 0.00 0.00 0.00 40 1011.2
20260506231048 27 203 8.0 16.1 0.00 0.00 0.00 41 1011.3
20260506230543 27 238 8.0 17.7 0.00 0.00 0.00 40 1011.2
20260506230037 27 200 8.0 17.7 0.00 0.00 0.00 38 1011.2
20260506225751 27 303 8.0 17.7 0.00 0.00 0.00 41 1011.3
20260506225024 27 237 8.0 19.3 0.00 0.00 0.00 38 1011.4
20260506224518 28 304 8.0 19.3 0.00 0.00 0.00 38 1011.3
20260506224013 28 250 8.0 19.3 0.00 0.00 0.00 36 1011.4
20260506223507 28 305 6.4 19.3 0.00 0.00 0.00 34 1011.4
20260506223001 28 239 6.4 16.1 0.00 0.00 0.00 35 1011.4
20260506222455 28 237 8.0 17.7 0.00 0.00 0.00 35 1011.5
20260506221949 28 272 8.0 17.7 0.00 0.00 0.00 34 1011.5